CBERS 1 DEB, 32079

Orbit data source: Space-Track

CBERS 1 DEB, 32079 is space debris in SSO originally from a launch on Thu, 14 Oct 1999 UTC launched from the Taiyaun Space Center, China (TSC). Debris objects in space refer to the collection of defunct objects orbiting the Earth. Examples of debris include non-operational satellites, rocket bodies, and fragments generated from explosions, collisions, or faulty payload assembly.

Loading next visibility...
Identifier
32079, 1999-057QT
Orbit
SSO
Country
Flag of UnknownUnknown / CHBZ
Related business
Manufacturer
Unknown
Mission
Spacecraft
Bus & Motor
Unknown
Mass
Unknown
Launch date (UTC)
1999-10-14 (26 years ago)
Launch vehicle
Unknown
Launch site
Taiyaun Space Center, China (TSC)
Object type
Payload
Rocket body
Debris
Shape & HBR
Unknown shape, 0.1 m
Radar Cross Section
Small (<0.1 m²)

Expand to show TLE details & history
Last TLE update: 3 days ago

TLE from 3 days ago
0 CBERS 1 DEB
1 32079U 99057QT  26034.90289224  .00001216  00000-0  36185-3 0  9998
2 32079  98.7568  61.3084 0004474 298.4294  61.6445 14.45022057978207
Epoch: 2026-02-03T21:40Z
TLE epoch observation values (Epoch: 2026-02-03T21:40:09.889Z)
Latitude
-0.00002°
Longitude
-37.80996°
Altitude
743.389 km
Speed
7.484 km/s
True Right ascension
04h 05m 14s
True Declination
0° 00' 00"
Sunlit
Object was in daylight at epoch
Visualization orbit readout
Latitude
Unknown
Longitude
Unknown
Altitude
Unknown
Speed
Unknown
Apparent Right ascension
Unknown
Apparent Declination
Unknown
Sunlit
N/A
Visualization observer readout
Local Sidereal Time
10:38:52
Azimuth
Unknown
Elevation
Unknown
Doppler factor
Unknown
Orbital elements
Apogee altitude
742.265 km
Perigee altitude
735.897 km
Semi-major axis
7,117.218 km
Eccentricity
0.00045
Inclination
98.7568°
RAAN
61.3084°
Arg. of periapsis
298.4294°
True anomaly
61.68963°
Mean anomaly
61.6445°
Eccentric anomaly
61.66706°
Mean motion
3.61475 °/min
Orbital period
99.59 mins
BSTAR
0.00036185
Loading maneuver chart data...
Computing Atmospheric mass density...

Documentation

Showing up to 5 results
|